Location: Hurecourt
(47.9030°N, 6.0653°E)
Time: 08:44:22
(UTC+00:00)

Cosmos 1850 Rocket - Pass Details

Date: 14 July 2020
Orbit: 755 x 785 km, 74.0° (Epoch: 14 August)

Event Time Altitude Azimuth Distance (km) Brightness Sun altitude
Exits shadow 02:46:38 - 200° (SSW) 2,419 6.0 -9.1°
Reaches altitude 10° 02:46:51 10° 200° (SSW) 2,337 5.9 -9.0°
Maximum altitude 02:52:10 89° 118° (ESE) 792 4.1 -8.4°
Drops below altitude 10° 02:57:33 10° 23° (NNE) 2,351 7.8 -7.8°
Sets 02:59:56 0° 23° (NNE) 3,281 8.7 -7.5°
